Regional Weather Roundup
Issued by NWS

Home | Current Version | Previous Version | Graphics & Text | Print | Product List | Glossary On
Versions: 1 2 3 4 5 6 7 8 9 10 11 12 13 14 15 16 17 18 19 20 21 22 23 24 25 26 27 28 29 30 31 32 33 34 35 36 37 38 39 40 41 42 43 44 45 46 47 48 49 50
000
ASUS43 KBIS 251510
RWRND

NORTH DAKOTA REGIONAL WEATHER ROUNDUP
NATIONAL WEATHER SERVICE BISMARCK ND
1000 AM CDT SAT MAR 25 2017

NOTE: "FAIR" INDICATES FEW OR NO CLOUDS BELOW 12,000 FEET WITH NO
SIGNIFICANT WEATHER AND/OR OBSTRUCTIONS TO VISIBILITY.


NDZ001>003-009>011-017-251600-
NORTHWEST NORTH DAKOTA

CITY           SKY/WX    TMP DP  RH WIND       PRES   REMARKS
WILLISTON      FAIR      44  33  65 S6        29.86R
MINOT          FAIR      35  31  85 SE14      29.92F
MINOT AFB      CLOUDY    33  31  92 S16       29.91F
$$

NDZ018>021-031>035-040>046-251600-
SOUTHWEST NORTH DAKOTA

CITY           SKY/WX    TMP DP  RH WIND       PRES   REMARKS
BISMARCK       CLOUDY    33  32  96 S20       30.05R FOG
DICKINSON      FAIR      40  31  70 S16       29.90R
GARRISON         N/A     32  31  96 S16       29.96S
HETTINGER ARPT CLOUDY    37  31  78 SE12      29.95R
$$

NDZ004>008-012>016-024-026-027-054-251600-
NORTHEAST NORTH DAKOTA

CITY           SKY/WX    TMP DP  RH WIND       PRES   REMARKS
GRAND FORKS    CLOUDY    36  33  89 S14       30.15F
GRND FRKS AFB  CLOUDY    36  35  98 S15       30.14F
DEVILS LAKE    CLOUDY    32  31  96 S20G28    30.08R
$$

NDZ022-023-025-028>030-036>039-047>053-251600-
SOUTHEAST NORTH DAKOTA

CITY           SKY/WX    TMP DP  RH WIND       PRES   REMARKS
FARGO          CLOUDY    35  31  85 SE14      30.18S
JAMESTOWN      CLOUDY    32  30  92 S16       30.09F FOG
$$





USA.gov is the U.S. government's official web portal to all federal, state and local government web resources and services.